Inquirer Daily News

Weather

Get conditions and forecasts for any City, State, ZIP code or Country:  
Northeast Philadelphia, PA
on Monday, January 7, 2013

Monday
Previous Day Next Day
Daily Summary
 ActualAverage (KTTN)Record (KTTN)
Temperature
Mean Temperature °F 31°F  
Max Temperature 46°F 39°F 66°F (2012)
Min Temperature 28°F 23°F 2°F (2014)
Degree Days
Heating Degree Days 28 34  
Month to date heating degree days 237  
Since 1 July heating degree days 2132  
Cooling Degree Days 0 0  
Month to date cooling degree days 0  
Year to date cooling degree days 0  
Moisture
Dew Point 26°F   
Average Humidity 60    
Maximum Humidity 82    
Minimum Humidity 42    
Precipitation
Precipitation 0.00 in 0.12 in 1.60 in (1875)
Month to date precipitation 0.81  
Year to date precipitation 0.81  
Wind
Wind Speed 6 mph   
Max Wind Speed 13 mph   
Max Gust Speed 20 mph   
Visibility 10 miles   
Events     

Key: T is trace of precipitation, MM is missing value
Source: NWS Daily Summary
Time(EST)TemperatureDew PointHumidity Pressure Visibility Wind DirectionWind SpeedGust SpeedPrecipitationEvents Conditions
12:54 AM 39.9°F 26.1°F 58% 30.12 in 10.0 miles West 6.9 mph - N/A   Clear
1:54 AM 37.9°F 26.1°F 62% 30.14 in 10.0 miles West 6.9 mph - N/A   Clear
2:54 AM 39.0°F 26.1°F 60% 30.16 in 10.0 miles WNW 8.1 mph - N/A   Clear
3:54 AM 37.9°F 26.1°F 62% 30.16 in 10.0 miles WNW 8.1 mph - N/A   Clear
4:54 AM 37.9°F 26.1°F 62% 30.19 in 10.0 miles WNW 6.9 mph - N/A   Scattered Clouds
5:54 AM 37.9°F 27.0°F 65% 30.22 in 10.0 miles WNW 4.6 mph - N/A   Partly Cloudy
6:54 AM 36.0°F 27.0°F 70% 30.26 in 10.0 miles Calm Calm - N/A   Mostly Cloudy
7:54 AM 37.9°F 28.0°F 68% 30.29 in 10.0 miles West 3.5 mph - N/A   Mostly Cloudy
8:54 AM 41.0°F 28.0°F 60% 30.32 in 10.0 miles WNW 4.6 mph - N/A   Mostly Cloudy
9:54 AM 42.1°F 28.0°F 58% 30.35 in 10.0 miles WNW 8.1 mph - N/A   Mostly Cloudy
10:54 AM 45.0°F 28.0°F 52% 30.37 in 10.0 miles NNW 12.7 mph 19.6 mph N/A   Partly Cloudy
11:54 AM 45.0°F 26.1°F 48% 30.37 in 10.0 miles NNW 8.1 mph - N/A   Mostly Cloudy
12:54 PM 46.9°F 27.0°F 46% 30.37 in 10.0 miles North 11.5 mph - N/A   Scattered Clouds
1:54 PM 45.0°F 26.1°F 48% 30.37 in 10.0 miles WNW 8.1 mph - N/A   Clear
2:54 PM 46.0°F 24.1°F 42% 30.38 in 10.0 miles NW 5.8 mph - N/A   Clear
3:54 PM 45.0°F 23.0°F 42% 30.40 in 10.0 miles NNW 6.9 mph - N/A   Clear
4:54 PM 42.1°F 25.0°F 51% 30.41 in 10.0 miles West 4.6 mph - N/A   Clear
5:54 PM 39.2°F 24.8°F 56% 30.42 in 10.0 miles West 5.8 mph - N/A   Clear
6:54 PM 37.9°F 26.1°F 62% 30.43 in 10.0 miles WSW 3.5 mph - N/A   Clear
7:54 PM 36.0°F 25.0°F 64% 30.43 in 10.0 miles Calm Calm - N/A   Clear
8:54 PM 33.1°F 24.1°F 70% 30.43 in 10.0 miles Calm Calm - N/A   Clear
9:54 PM 32.0°F 24.1°F 73% 30.43 in 10.0 miles Calm Calm - N/A   Clear
10:54 PM 28.9°F 24.1°F 82% 30.43 in 10.0 miles Calm Calm - N/A   Clear
11:54 PM 30.0°F 24.1°F 79% 30.43 in 10.0 miles Calm Calm - N/A   Clear
Astronomy
Sunrise:07:22 AM (EST) Moon Rise:02:43 AM (EST)1/7
Sunset:04:51 PM (EST) Moon Set:01:00 PM (EST)1/7
Moon Phase
Jan. 07 Jan. 11 Jan. 18 Jan. 26 Feb. 03

Copyright © 2014 The Weather Underground, Inc.